Location: Anne Acres
(38.7004°N, 75.0827°W)
Time: 08:51:40
(UTC+00:00)

Courier 1B Rocket - Pass Details

Date: 13 November 2024
Orbit: 920 x 1201 km, 28.2° (Epoch: 06 December)

Event Time Altitude Azimuth Distance (km) Brightness Sun altitude
Rises 00:52:48 0° 259° (W) 3,580 8.9 -36.0°
Reaches altitude 10° 00:56:00 10° 245° (WSW) 2,615 7.8 -36.6°
Enters shadow 00:59:11 20° 216° (SW) 1,969 6.8 -37.2°
